Weather History for Lawrence, MA

Change the Weather History Date:

Wednesday, November 7, 2012

  Actual Average Record
Temperature  
Mean Temperature 34 °F -  
Max Temperature 37 °F 52 °F 76 °F (1938)
Min Temperature 30 °F 35 °F 24 °F (1930)
Degree Days  
Heating Degree Days 32    
Moisture  
Dew Point 22 °F    
Average Humidity 64    
Maximum Humidity 87    
Minimum Humidity 39    
Precipitation  
Precipitation 0.03 in - - ()
Sea Level Pressure  
Sea Level Pressure 29.98 in    
Wind  
Wind Speed 15 mph (NNE)    
Max Wind Speed 24 mph    
Max Gust Speed 38 mph    
Visibility 7 miles    
Events Snow    
Averages and records for this station are not official NWS values.
T = Trace of Precipitation, MM = Missing Value Source: NWS Daily Summary

Daily Weather History Graph

Daily Weather History Graph

Search for Another Location

Airport:

Trip Planner

Search our weather history database for the weather conditions in past years. The results will help you decide how hot, cold, wet, or windy it might be!

Date:

Astronomy

Nov. 07, 2012 Rise Set
Actual Time 6:26 AM EST 4:29 PM EST
Civil Twilight 5:56 AM EST 4:59 PM EST
Nautical Twilight 5:23 AM EST 5:32 PM EST
Astronomical Twilight 4:49 AM EST 6:05 PM EST
Moon No Moon Rise 12:45 PM EST (11/7)
Length of Visible Light 11h 02m
Length of Day
10h 02m
Last Quarter, 43% of the Moon is Illuminated
Nov 7
Last Quarter
Nov 13
New
Nov 20
First Quarter
Nov 28
Full
Dec 6
Last Quarter

Hourly Weather History & Observations

Time (EST) Temp. Windchill Dew Point Humidity Pressure Visibility Wind Dir Wind Speed Gust Speed Precip Events Conditions
12:54 AM 30.0 °F 25.2 °F 21.9 °F 72% 30.20 in 10.0 mi NNE 4.6 mph - N/A   Mostly Cloudy
1:54 AM 32.0 °F 24.2 °F 21.9 °F 66% 30.19 in 10.0 mi NNE 9.2 mph - N/A   Overcast
2:54 AM 33.1 °F 24.9 °F 21.0 °F 61% 30.19 in 10.0 mi NNE 10.4 mph - N/A   Overcast
3:54 AM 33.1 °F 23.0 °F 21.0 °F 61% 30.17 in 10.0 mi NNE 15.0 mph - N/A   Overcast
4:54 AM 34.0 °F 24.6 °F 21.0 °F 59% 30.14 in 10.0 mi NNE 13.8 mph 21.9 mph N/A   Overcast
5:54 AM 34.0 °F 24.6 °F 21.0 °F 59% 30.14 in 10.0 mi NNE 13.8 mph - N/A   Overcast
6:54 AM 35.1 °F 24.8 °F 21.9 °F 59% 30.13 in 10.0 mi NNE 17.3 mph - N/A   Overcast
7:54 AM 35.1 °F 23.8 °F 19.9 °F 54% 30.10 in 10.0 mi NNE 20.7 mph 27.6 mph N/A   Overcast
8:23 AM 35.6 °F 25.2 °F 21.2 °F 56% 30.08 in 10.0 mi NNE 18.4 mph 25.3 mph N/A   Overcast
8:54 AM 36.0 °F 26.3 °F 23.0 °F 59% 30.10 in 10.0 mi NNE 16.1 mph 23.0 mph N/A   Overcast
9:54 AM 36.0 °F 26.0 °F 21.9 °F 57% 30.09 in 10.0 mi NNE 17.3 mph 24.2 mph N/A   Overcast
10:54 AM 36.0 °F 25.0 °F 21.0 °F 55% 30.06 in 10.0 mi NNE 20.7 mph 27.6 mph N/A   Overcast
11:54 AM 37.0 °F 26.4 °F 21.9 °F 54% 30.03 in 10.0 mi NNE 20.7 mph 27.6 mph N/A   Overcast
12:46 PM 35.6 °F 24.8 °F 19.4 °F 52% 30.01 in 10.0 mi NNE 19.6 mph 25.3 mph N/A   Overcast
12:54 PM 36.0 °F 25.6 °F 19.0 °F 50% 30.01 in 10.0 mi NNE 18.4 mph 25.3 mph N/A   Overcast
1:54 PM 36.0 °F 25.6 °F 16.0 °F 44% 29.98 in 10.0 mi NE 18.4 mph 27.6 mph N/A   Overcast
2:54 PM 36.0 °F 26.7 °F 15.1 °F 43% 29.97 in 10.0 mi NNE 15.0 mph 27.6 mph N/A   Overcast
3:54 PM 36.0 °F 26.7 °F 15.1 °F 43% 29.96 in 10.0 mi NNE 15.0 mph 25.3 mph N/A   Overcast
4:54 PM 36.0 °F 25.3 °F 15.1 °F 43% 29.95 in 10.0 mi NNE 19.6 mph - N/A   Overcast
5:54 PM 37.0 °F 27.4 °F 14.0 °F 39% 29.94 in 10.0 mi NNE 17.3 mph 24.2 mph N/A   Overcast
6:54 PM 37.0 °F 26.2 °F 14.0 °F 39% 29.93 in 10.0 mi NNE 21.9 mph 31.1 mph N/A   Overcast
7:18 PM 37.4 °F 26.4 °F 15.8 °F 41% 29.92 in 9.0 mi NNE 23.0 mph 31.1 mph 0.00 in   Overcast
7:51 PM 33.8 °F 22.5 °F 21.2 °F 60% 29.92 in 6.0 mi NE 19.6 mph 34.5 mph 0.00 in Snow Light Snow
7:54 PM 34.0 °F 21.8 °F 23.0 °F 64% 29.93 in 5.0 mi NNE 23.0 mph 34.5 mph 0.00 in Snow Light Snow
8:21 PM 33.8 °F 22.5 °F 23.0 °F 65% 29.91 in 4.0 mi NNE 19.6 mph 33.4 mph 0.00 in Snow Light Snow
8:44 PM 33.8 °F 21.3 °F 24.8 °F 70% 29.90 in 1.8 mi NNE 24.2 mph 38.0 mph 0.00 in Snow Light Snow
8:54 PM 33.1 °F 20.6 °F 26.1 °F 75% 29.91 in 1.8 mi NE 23.0 mph 35.7 mph 0.00 in Snow Light Snow
9:45 PM 32.0 °F 20.5 °F 26.6 °F 80% 29.88 in 1.5 mi NNE 18.4 mph 27.6 mph 0.00 in Snow Light Snow
9:54 PM 32.0 °F 21.2 °F 28.0 °F 85% 29.88 in 1.8 mi North 16.1 mph 23.0 mph 0.00 in Snow Light Snow
10:16 PM 32.0 °F 20.8 °F 28.4 °F 87% 29.86 in 1.5 mi North 17.3 mph 26.5 mph 0.00 in Snow Light Snow
10:30 PM 32.0 °F 21.2 °F 28.4 °F 87% 29.85 in 0.8 mi North 16.1 mph 25.3 mph 0.01 in Snow Light Snow
10:40 PM 32.0 °F 21.6 °F 28.4 °F 87% 29.85 in 1.2 mi NNE 15.0 mph - 0.01 in Snow Light Snow
10:54 PM 32.0 °F 20.8 °F 28.0 °F 85% 29.84 in 1.5 mi North 17.3 mph 27.6 mph 0.01 in Snow Light Snow
11:07 PM 32.0 °F 21.6 °F 28.4 °F 87% 29.83 in 1.8 mi North 15.0 mph 26.5 mph 0.00 in Snow Light Snow
11:28 PM 32.0 °F 21.2 °F 28.4 °F 87% 29.82 in 2.0 mi North 16.1 mph 24.2 mph 0.01 in Snow Light Snow
11:34 PM 32.0 °F 20.1 °F 28.4 °F 87% 29.82 in 1.8 mi North 19.6 mph 28.8 mph 0.01 in Snow Light Snow
11:42 PM 32.0 °F 21.2 °F 28.4 °F 87% 29.82 in 1.8 mi North 16.1 mph 28.8 mph 0.01 in Snow Light Snow
11:54 PM 32.0 °F 20.8 °F 28.0 °F 85% 29.82 in 1.5 mi North 17.3 mph 24.2 mph 0.02 in Snow Light Snow